Tracking 19903 objects as of 16-Oct-2019
HD Live streaming from Space Station
objects crossing your sky now

FENGYUN 1C DEB

Track FENGYUN 1C DEB now!
10-day predictions


NORAD ID: 30679
Int'l Code: 1999-025AQM
Perigee: 853.6 km
Apogee: 1,113.2 km
Inclination: 99.6 °
Period: 104.6 minutes
Semi major axis: 7354 km
RCS: 0.0204 m2 (small)
Launch date: May 10, 1999
Source: People's Republic of China (PRC)
Launch site: Taiyaun Space Center, China (TSC)

Note: This is SATELLITE DEBRIS
aabbcc
Your satellite tracking list
Your tracking list is empty




NASA's NSSDC Master Catalog

Two Line Element Set (TLE):
1 30679U 99025AQM 19287.90026802  .00000183  00000-0  20936-3 0  9999
2 30679  99.6130 306.8531 0176488 216.5148 265.7308 13.76507994635345
Source of the keplerian elements: AFSPC